Temp
62 62 62 62 62 62 62 62 62 62 62 62 62 62 62 62 61 61 56 71 71 78 80 78 79 81 81 75 79 76 60 59 62 65 71 77 73 81 81 76 79 80 75 75 78
62 62 61 61 62 62 62 62 62 62 62 62 62 62 62 62 57 57 72 77 77 79 78 75 73 78 70 72 75 68 59 63 72 73 71 74 74 78 75 75 73 74 77 79 79
61 61 61 61 61 62 62 62 62 61 61 61 61 61 61 61 56 67 79 77 78 79 82 82 80 77 69 73 72 68 61 70 76 77 82 82 78 80 74 67 71 69 73 76 77
61 60 60 61 61 61 61 61 61 61 61 61 61 62 61 58 61 83 82 78 79 80 80 78 76 69 67 67 75 66 73 76 77 80 79 80 83 76 77 74 78 76 77 77 75
60 60 60 60 60 61 61 61 60 60 60 61 62 62 56 53 60 82 83 78 80 79 76 75 71 70 66 71 74 72 76 79 83 83 80 82 82 77 76 78 79 79 78 76 76
59 60 60 60 60 60 60 60 60 60 61 61 64 62 52 52 79 81 82 77 80 78 76 76 74 76 72 73 72 78 78 82 85 81 80 77 79 77 75 78 76 77 76 77 77
59 59 59 59 60 60 60 59 59 61 62 61 63 62 54 60 81 80 79 75 79 80 74 79 80 77 76 72 80 79 75 80 80 82 78 82 76 71 76 77 74 75 76 77 78
59 59 59 59 59 59 58 58 59 63 62 62 65 62 49 73 73 73 77 78 80 82 80 81 81 73 71 78 77 72 72 68 79 82 83 81 69 74 76 74 72 74 75 76 77
58 59 59 59 59 58 57 57 61 64 64 65 57 54 50 76 71 75 78 79 78 76 78 88 76 69 70 65 60 63 59 65 73 83 82 80 68 74 76 73 71 73 75 76 76
58 58 58 58 58 57 56 58 62 62 64 67 67 52 62 73 77 81 79 83 77 76 74 74 67 60 64 57 53 56 58 64 67 78 80 77 70 73 75 73 72 73 74 76 76
58 58 58 58 57 56 53 55 62 55 58 55 60 62 69 75 82 77 82 80 79 71 62 67 60 56 62 65 66 67 65 65 71 79 78 77 71 71 75 74 72 73 73 74 76
58 58 57 57 56 55 52 57 57 63 51 66 67 66 71 72 65 72 79 72 70 64 66 60 58 67 70 69 68 68 64 65 72 78 74 72 69 72 75 74 75 74 74 75 77
58 57 57 55 55 57 56 60 67 59 46 58 64 64 65 66 64 66 71 72 67 64 65 61 65 73 71 68 67 65 63 65 65 73 75 70 65 69 75 76 76 76 78 79 80
58 57 56 55 56 53 58 65 66 62 40 53 61 68 70 67 62 78 77 71 70 65 67 65 73 71 68 67 69 60 72 72 71 65 57 73 57 65 70 69 72 74 76 77 80
57 57 56 53 46 52 64 62 69 57 34 64 62 75 70 61 66 66 74 71 64 66 65 64 68 68 66 68 73 67 73 71 71 62 56 66 57 65 68 65 71 73 77 79 80
57 56 55 53 48 56 61 65 57 42 35 56 61 59 60 61 64 65 65 69 74 66 70 68 76 74 72 75 75 76 71 68 67 59 52 63 60 60 64 68 71 73 75 77 81
55 54 53 58 55 61 62 55 40 34 58 51 49 55 54 54 57 58 55 52 46 49 55 65 68 75 77 69 73 71 59 49 49 48 50 65 56 65 71 75 75 74 74 76 79
54 53 54 60 56 59 55 45 33 49 46 54 52 52 49 53 52 55 51 46 52 46 47 54 52 68 76 70 66 65 61 47 42 42 52 58 51 61 75 80 82 80 78 78 80
53 52 53 61 64 58 49 34 36 45 52 49 49 43 44 51 50 49 47 46 50 49 37 38 55 72 76 78 74 64 60 64 50 45 47 53 58 67 76 77 77 82 80 79 82
48 45 51 65 64 54 44 38 43 53 54 51 39 44 37 43 43 43 45 53 49 53 52 43 39 65 73 77 76 69 68 54 48 42 40 51 53 57 68 73 74 75 81 82 86
43 43 57 70 59 48 37 39 50 57 56 47 42 40 40 40 43 43 45 52 53 50 51 45 40 51 63 64 66 62 65 58 59 49 45 43 55 69 68 72 74 75 83 85 87
40 37 58 65 46 41 38 46 52 51 53 49 48 44 40 42 39 42 43 46 52 50 40 47 41 36 52 68 71 73 62 62 58 48 48 49 60 74 75 79 81 83 81 87 88
38 39 56 54 33 34 43 48 51 49 45 46 45 46 43 38 35 41 45 53 53 48 41 42 41 32 46 54 61 60 67 63 58 55 51 55 60 74 74 76 76 83 81 83 88
38 35 42 44 43 37 37 41 43 54 51 49 46 45 42 38 38 38 42 49 53 50 50 44 34 33 33 43 52 56 65 68 62 55 58 59 61 69 73 73 74 74 77 82 87
39 35 38 32 37 37 40 42 43 43 48 48 44 45 39 30 34 36 44 47 51 50 46 39 30 38 41 48 53 55 63 67 64 68 60 64 62 68 69 73 71 74 75 78 85
37 36 37 40 37 38 40 40 41 42 43 42 40 43 43 35 38 34 41 42 42 45 41 39 33 37 39 54 57 59 66 66 69 70 64 63 64 71 72 73 71 72 74 74 82
42 42 41 40 39 36 39 40 40 45 44 48 44 41 39 42 46 45 46 49 48 43 39 37 36 33 34 50 58 52 58 65 69 71 70 60 66 69 65 68 67 70 76 74 75
MSLP
1019.21 1018.66 1018.13 1017.61 1017.01 1016.41 1015.96 1015.49 1014.95 1014.50 1014.10 1013.60 1013.33 1013.11 1012.88 1012.62 1012.33 1011.87 1010.76 1008.13 1008.28 1008.06 1008.06 1008.80 1009.30 1009.11 1009.38 1009.70 1009.67 1010.06 1010.44 1010.10 1009.46 1009.09 1008.27 1007.43 1007.58 1007.42 1007.20 1007.88 1008.41 1008.86 1009.74 1011.14 1012.31
1019.14 1018.56 1017.99 1017.37 1016.78 1016.20 1015.58 1015.09 1014.63 1014.12 1013.76 1013.37 1012.98 1012.77 1012.59 1012.45 1011.92 1010.19 1006.23 1006.35 1007.14 1007.48 1008.05 1008.28 1008.73 1009.00 1009.40 1009.20 1009.41 1009.49 1009.51 1008.79 1007.72 1007.50 1007.41 1007.28 1007.33 1007.04 1007.51 1008.27 1008.91 1009.45 1010.47 1011.64 1012.49
1018.98 1018.33 1017.68 1017.02 1016.39 1015.79 1015.33 1014.80 1014.26 1013.78 1013.36 1013.06 1012.69 1012.42 1012.31 1012.24 1011.24 1006.16 1003.46 1005.00 1006.09 1007.00 1007.38 1007.63 1008.04 1008.72 1009.17 1009.00 1008.83 1008.69 1008.26 1007.31 1006.85 1006.04 1005.85 1006.03 1006.86 1007.32 1007.44 1008.65 1008.13 1008.86 1010.36 1011.54 1012.38
1018.78 1018.07 1017.35 1016.65 1015.96 1015.37 1014.83 1014.36 1013.87 1013.40 1012.97 1012.66 1012.44 1012.11 1012.10 1011.96 1008.78 1003.61 1003.03 1004.07 1005.60 1006.60 1007.23 1007.49 1008.07 1008.67 1008.79 1008.38 1007.55 1007.63 1006.84 1006.45 1005.86 1005.03 1005.08 1005.02 1005.37 1006.52 1006.78 1006.82 1008.02 1008.29 1009.46 1010.93 1012.09
1018.64 1017.87 1017.06 1016.20 1015.45 1014.85 1014.22 1013.73 1013.26 1012.74 1012.43 1012.31 1012.05 1012.04 1012.14 1011.16 1006.94 1003.29 1003.21 1004.13 1005.53 1006.40 1006.71 1007.04 1007.57 1007.84 1007.69 1007.22 1007.22 1006.69 1005.82 1005.45 1005.18 1004.84 1004.72 1004.55 1004.55 1005.19 1006.90 1007.61 1008.59 1009.76 1010.40 1011.07 1011.96
1018.46 1017.61 1016.76 1015.93 1015.04 1014.35 1013.66 1013.06 1012.53 1012.05 1011.80 1011.76 1011.62 1012.01 1011.92 1009.62 1003.97 1003.32 1003.72 1004.54 1004.68 1005.68 1006.31 1006.60 1006.44 1006.73 1006.92 1006.47 1006.49 1005.12 1005.27 1004.85 1004.12 1003.80 1003.79 1004.32 1005.19 1005.23 1007.55 1008.03 1008.93 1009.80 1010.62 1011.17 1011.65
1018.49 1017.67 1016.71 1015.74 1014.84 1014.01 1013.08 1012.23 1011.68 1011.00 1010.72 1011.10 1011.16 1011.54 1011.14 1006.25 1003.39 1003.50 1003.69 1004.06 1004.09 1004.52 1005.43 1005.66 1005.80 1006.41 1006.04 1006.12 1005.06 1004.97 1005.13 1004.31 1003.57 1002.90 1004.22 1004.68 1005.60 1006.50 1006.98 1008.11 1008.94 1009.83 1010.55 1011.28 1011.49
1018.31 1017.51 1016.61 1015.57 1014.62 1013.79 1012.78 1011.57 1010.91 1010.31 1010.13 1010.63 1010.69 1011.03 1009.25 1004.38 1003.95 1003.90 1003.77 1003.92 1004.20 1004.11 1004.36 1004.94 1005.57 1006.21 1006.09 1005.51 1004.92 1004.92 1004.72 1004.47 1003.42 1003.03 1003.00 1004.21 1005.19 1006.76 1007.46 1007.90 1009.00 1009.99 1010.57 1010.95 1011.24
1018.39 1017.38 1016.52 1015.43 1014.21 1013.61 1012.44 1011.19 1010.44 1010.20 1010.20 1010.46 1010.78 1010.58 1006.94 1003.76 1003.80 1002.70 1003.08 1003.24 1003.92 1004.47 1004.74 1004.97 1005.95 1006.15 1006.11 1006.16 1005.90 1004.93 1004.52 1003.82 1003.10 1002.56 1002.40 1003.92 1004.92 1006.48 1008.05 1008.38 1008.86 1009.49 1009.81 1010.55 1010.96
1018.31 1017.46 1016.43 1015.38 1014.36 1013.56 1012.24 1010.58 1009.85 1010.15 1010.26 1010.43 1010.05 1010.00 1005.72 1003.69 1003.14 1002.64 1002.24 1002.71 1003.66 1004.34 1005.20 1005.27 1005.68 1005.79 1005.82 1005.82 1005.02 1004.88 1004.50 1003.47 1002.59 1001.85 1001.97 1003.45 1004.31 1005.64 1006.96 1007.47 1007.75 1008.55 1008.84 1009.28 1009.91
1018.18 1017.31 1016.29 1015.05 1013.99 1013.14 1012.38 1011.03 1010.58 1010.48 1009.72 1009.89 1008.50 1007.87 1005.45 1004.58 1003.55 1002.02 1002.08 1002.40 1003.15 1003.78 1004.34 1004.52 1005.18 1004.44 1003.82 1004.61 1004.67 1004.46 1004.01 1003.36 1001.75 1001.19 1001.74 1002.09 1003.66 1005.20 1006.07 1006.95 1007.25 1007.80 1008.35 1008.34 1008.60
1018.22 1017.17 1016.22 1014.86 1013.63 1012.90 1012.77 1012.46 1012.16 1011.93 1009.27 1007.28 1006.66 1006.54 1005.84 1005.41 1004.82 1002.42 1001.94 1001.96 1002.61 1002.85 1003.55 1004.14 1003.24 1003.00 1003.79 1003.93 1004.19 1003.92 1003.67 1002.91 1001.97 1000.92 1001.50 1001.73 1003.30 1004.26 1005.08 1005.08 1005.28 1006.39 1007.03 1007.05 1007.98
1017.93 1016.90 1015.96 1014.82 1013.29 1012.52 1012.76 1011.72 1010.96 1010.91 1010.57 1007.10 1005.99 1005.48 1004.59 1004.35 1004.35 1002.67 1002.91 1001.93 1001.80 1002.40 1002.56 1002.39 1001.48 1002.64 1002.86 1002.92 1003.07 1002.92 1002.88 1002.47 1002.26 1001.23 1001.39 1001.64 1003.21 1004.53 1004.52 1005.09 1005.73 1005.84 1005.34 1005.45 1005.48
1017.47 1016.60 1015.67 1014.75 1013.14 1013.53 1012.33 1010.85 1010.55 1010.71 1010.72 1007.40 1005.82 1004.79 1004.32 1004.03 1003.86 1002.40 1002.47 1002.76 1001.80 1001.57 1002.20 1001.73 1001.49 1001.31 1001.69 1001.65 1001.84 1001.95 1001.74 1002.13 1002.25 1002.50 1002.34 1001.66 1002.66 1003.65 1004.13 1004.83 1005.17 1005.08 1004.84 1004.56 1004.97
1017.18 1016.25 1015.21 1015.00 1014.85 1013.74 1011.48 1010.75 1010.36 1010.69 1009.96 1007.00 1006.51 1005.43 1005.31 1005.35 1005.04 1002.93 1003.13 1002.02 1001.60 1001.35 1001.20 999.72 1000.15 1000.43 1000.44 999.92 1000.62 1000.59 1001.57 1002.02 1002.09 1002.83 1002.99 1001.91 1002.87 1002.86 1003.33 1004.15 1003.76 1004.06 1004.08 1003.74 1004.03
1016.75 1015.82 1015.26 1014.59 1014.53 1012.13 1011.32 1010.68 1010.54 1011.48 1009.33 1007.72 1007.53 1006.83 1005.82 1006.08 1005.69 1004.92 1004.23 1003.07 1001.10 1001.71 1000.83 1000.06 999.61 999.33 998.98 999.47 1000.06 1000.66 1001.48 1001.92 1002.10 1002.88 1003.05 1001.93 1002.64 1001.56 1002.13 1001.83 1002.08 1002.98 1002.93 1003.07 1003.05
1016.25 1015.30 1014.65 1014.14 1013.11 1011.36 1011.71 1011.52 1011.90 1011.42 1009.52 1009.25 1008.81 1008.23 1007.99 1007.57 1006.71 1006.51 1006.25 1006.36 1006.21 1003.61 1001.70 1001.09 999.66 999.02 998.68 999.22 999.67 1000.44 1001.23 1002.69 1002.96 1002.95 1002.41 1001.63 1001.97 1000.38 1000.35 1000.09 999.47 1000.49 1001.38 1001.63 1001.88
1016.00 1014.64 1013.86 1013.07 1011.94 1011.79 1012.69 1012.76 1012.75 1012.12 1011.17 1010.53 1010.20 1009.65 1009.55 1008.77 1008.29 1007.91 1007.58 1008.00 1008.00 1006.79 1004.98 1002.12 1000.14 998.24 997.58 997.83 998.63 999.48 1000.53 1001.83 1002.63 1002.98 1002.51 1001.47 1000.32 998.84 997.76 998.10 998.29 998.87 998.34 999.75 1000.56
1016.12 1014.49 1013.83 1012.11 1011.57 1012.29 1013.50 1013.92 1013.23 1012.34 1011.95 1011.54 1010.82 1010.86 1010.94 1010.39 1010.23 1009.67 1009.57 1009.35 1010.22 1010.47 1010.21 1006.56 1000.52 998.23 997.31 996.95 997.35 998.20 998.82 1000.55 1002.09 1002.69 1002.47 1000.69 999.32 998.14 997.20 996.58 997.43 997.83 999.02 999.54 999.31
1017.49 1015.94 1014.12 1012.21 1011.41 1012.39 1013.83 1013.95 1013.15 1012.30 1011.93 1012.05 1012.47 1012.37 1012.15 1011.63 1011.35 1011.18 1010.41 1010.21 1010.83 1011.50 1011.95 1009.81 1005.39 998.64 997.03 996.74 996.59 996.28 998.18 999.83 1000.78 1002.07 1001.95 1000.16 998.54 997.04 996.62 995.95 995.87 996.64 997.11 997.43 998.38
1017.95 1016.54 1013.34 1011.93 1011.44 1013.08 1014.49 1014.25 1013.18 1012.38 1012.12 1012.65 1013.04 1013.17 1012.88 1012.68 1012.18 1011.89 1011.51 1011.22 1011.44 1011.35 1012.14 1011.47 1008.42 1001.41 998.64 996.65 995.59 996.64 996.95 998.20 999.78 1000.89 1001.25 1000.21 996.92 995.33 995.48 995.22 994.88 994.99 995.19 995.64 996.56
1019.35 1017.61 1013.63 1012.64 1013.50 1014.64 1015.21 1014.58 1013.69 1012.93 1012.56 1012.71 1012.85 1013.11 1013.27 1013.24 1012.79 1012.49 1012.17 1012.08 1012.22 1012.73 1012.89 1012.49 1010.27 1006.29 1000.40 997.14 996.50 996.33 996.98 997.82 998.82 1000.01 1000.01 999.27 996.18 994.32 994.43 994.00 993.70 993.41 994.04 994.21 994.77
1020.55 1018.38 1014.80 1014.26 1016.31 1016.79 1016.04 1015.12 1014.21 1013.61 1013.14 1013.07 1013.27 1013.25 1013.36 1013.45 1013.48 1013.09 1012.83 1012.61 1012.89 1013.15 1014.34 1014.39 1011.78 1008.86 1002.24 999.14 997.37 996.76 996.34 996.51 997.19 997.94 998.59 998.64 995.61 993.91 993.22 992.79 992.59 991.49 992.11 993.12 993.90
1020.98 1019.86 1017.85 1017.43 1018.24 1018.44 1017.71 1015.97 1014.95 1013.87 1013.39 1013.34 1013.26 1013.36 1013.47 1013.62 1013.59 1013.45 1013.14 1012.85 1013.29 1014.05 1014.69 1015.55 1013.93 1010.97 1006.80 1002.93 1000.80 997.64 996.15 995.88 996.17 996.82 997.25 996.57 995.55 994.63 993.79 993.10 991.57 990.72 991.45 991.96 992.82
1021.13 1021.08 1020.57 1019.89 1019.11 1019.13 1018.52 1016.97 1015.63 1014.81 1014.44 1014.09 1013.86 1013.96 1014.08 1014.19 1013.92 1013.71 1013.29 1013.40 1013.60 1014.24 1014.93 1015.92 1013.88 1011.17 1007.65 1004.01 1001.15 998.63 996.53 995.12 995.19 995.18 995.71 995.85 995.70 994.72 994.19 993.19 992.10 991.63 991.88 992.17 992.68
1021.37 1021.29 1021.23 1020.60 1020.09 1019.55 1018.26 1017.28 1016.57 1015.91 1015.76 1014.98 1014.93 1014.69 1014.32 1014.29 1014.00 1013.79 1013.67 1013.43 1013.49 1014.30 1014.74 1015.38 1013.76 1011.22 1006.39 1001.71 999.62 997.78 995.79 994.87 994.53 994.60 995.07 995.31 995.21 994.09 994.02 994.33 992.70 992.33 992.37 992.48 992.74
1020.96 1021.16 1021.27 1020.62 1020.24 1019.90 1018.72 1018.08 1017.19 1016.42 1015.88 1015.35 1015.23 1014.87 1014.02 1013.55 1013.10 1012.69 1012.72 1012.52 1012.74 1013.05 1013.77 1014.35 1013.46 1011.48 1006.33 1001.87 999.00 997.90 997.44 995.31 994.30 994.64 995.30 995.79 995.39 994.74 995.49 996.02 995.15 994.33 993.32 993.55 993.53
Wind_Speed
20 21 21 21 21 22 21 20 21 21 20 20 18 16 15 14 12 4 11 12 13 12 16 13 9 11 10 6 4 5 1 2 4 10 1 5 6 14 9 15 3 5 10 19 24
22 22 23 23 22 22 22 22 21 20 19 19 18 16 13 12 7 12 16 22 20 21 10 15 12 11 4 5 4 2 2 8 9 6 13 4 2 8 9 11 12 17 22 21 22
24 24 24 25 25 24 23 22 21 20 19 17 17 14 10 8 5 11 9 27 24 20 8 11 9 8 7 5 9 9 7 7 7 13 6 3 13 4 18 8 22 29 27 26 24
25 26 26 26 26 26 25 23 21 19 18 16 13 10 6 3 5 4 4 26 23 17 9 7 5 8 7 13 14 8 15 8 6 9 8 7 13 13 9 7 21 29 29 26 24
26 25 25 26 27 26 24 22 20 20 18 13 10 3 1 1 15 7 5 23 17 18 17 15 10 9 10 11 15 14 16 15 11 13 6 3 12 11 8 16 22 22 23 23 20
25 26 26 27 27 27 26 23 22 21 18 12 7 4 2 5 6 12 4 21 20 18 14 13 11 13 7 11 14 6 18 11 9 6 3 8 1 8 15 23 23 23 22 21 20
24 25 27 28 28 29 28 27 23 23 15 8 7 5 4 20 3 8 12 11 16 23 15 15 11 12 8 6 23 17 14 11 18 18 5 12 5 12 24 24 25 22 20 19 19
26 26 27 28 29 28 28 29 24 19 5 5 7 6 11 8 7 10 7 3 8 17 7 14 11 4 3 7 9 7 11 13 17 12 11 15 11 16 23 26 24 23 19 19 18
25 27 27 29 31 28 28 29 23 5 5 8 6 4 14 11 3 10 6 8 9 6 8 10 6 7 2 5 5 3 8 8 17 18 12 12 6 21 21 21 23 23 22 20 17
26 26 27 28 28 26 29 27 17 6 3 8 2 3 6 3 9 15 10 10 7 12 5 10 6 5 9 6 12 6 5 7 11 15 24 21 10 26 26 26 27 25 25 23 21
27 27 28 30 30 28 15 6 11 7 3 9 18 13 30 17 16 9 5 12 11 6 10 9 10 16 23 13 5 6 8 10 9 11 9 24 21 28 27 23 24 24 23 24 24
24 25 25 29 31 27 1 5 4 9 16 10 16 19 24 11 13 20 8 11 11 17 9 4 19 19 6 9 12 12 10 14 14 15 6 5 26 29 26 29 30 25 25 24 22
25 26 26 29 31 5 4 5 7 5 3 12 4 4 8 6 10 19 3 5 6 11 17 20 8 14 15 14 15 14 15 14 10 10 5 4 12 23 24 18 14 18 25 26 30
27 28 26 29 6 6 7 8 8 1 4 9 7 4 11 3 4 13 7 5 8 15 12 17 23 20 19 19 18 16 18 17 15 6 7 5 6 18 21 21 18 22 23 24 24
28 29 29 15 4 4 10 8 14 6 2 6 8 4 13 8 10 19 23 5 15 13 11 20 22 24 22 25 18 18 11 14 18 5 2 16 1 15 28 22 26 20 22 23 25
31 31 28 2 1 10 8 14 5 7 4 5 7 16 17 16 12 15 15 17 7 18 20 15 11 25 26 18 20 9 11 9 10 3 9 20 7 8 23 30 28 21 24 20 22
34 33 18 2 5 5 8 6 7 4 11 9 8 10 8 16 11 14 15 15 10 6 16 15 19 21 12 19 12 15 8 7 8 7 10 13 6 13 20 30 37 35 33 24 22
36 31 5 6 7 2 5 6 6 12 5 6 8 7 9 18 6 17 11 12 17 20 10 16 19 22 17 15 18 13 11 8 14 6 11 5 9 8 15 20 30 32 35 27 24
31 6 5 6 8 4 6 4 1 5 7 9 8 5 6 10 6 11 8 4 12 21 17 11 18 7 24 19 17 13 19 13 6 3 3 5 5 4 11 11 10 29 25 25 26
9 5 5 7 4 5 6 4 3 3 6 6 7 5 6 6 6 10 6 5 7 18 15 7 11 15 24 16 20 18 9 8 3 7 5 7 6 7 9 14 8 12 27 29 28
4 5 5 18 4 7 3 3 4 6 8 6 3 4 5 7 6 4 8 11 16 20 16 12 5 12 2 12 27 6 15 6 7 7 7 4 11 9 11 13 13 12 24 30 29
4 5 6 10 6 2 2 6 8 6 5 2 1 2 2 6 4 4 6 4 13 15 13 9 7 8 13 10 5 21 8 11 10 10 4 5 13 5 11 17 18 21 18 26 32
5 4 5 6 5 5 6 8 3 9 1 2 3 3 1 1 5 2 4 6 7 12 8 10 5 10 9 5 3 6 12 9 6 6 10 12 14 2 11 12 17 28 18 20 28
3 5 6 5 2 3 6 5 10 7 5 3 3 2 3 4 3 3 3 4 6 7 5 9 6 9 8 15 14 7 13 12 10 8 10 15 11 9 12 14 10 7 13 17 21
1 1 2 6 5 10 6 5 10 7 6 8 5 3 4 3 2 1 4 12 9 6 4 4 8 12 20 26 25 23 17 13 17 17 14 12 7 11 10 13 6 5 9 12 21
0 2 3 4 5 7 5 3 9 7 8 7 7 16 6 6 7 4 3 7 6 4 1 2 7 18 23 15 18 14 10 7 17 19 7 9 8 8 4 13 6 7 10 10 18
2 3 2 3 3 3 4 10 15 15 7 9 14 15 6 8 9 13 13 17 10 9 7 6 5 6 9 9 5 5 15 6 11 11 11 8 10 3 11 11 14 11 13 11 7
Wind_Direction
350 348 344 341 337 333 331 327 323 321 318 315 314 312 311 312 307 238 234 216 184 230 136 158 196 189 174 186 158 153 71 203 208 212 62 82 202 164 95 133 151 172 131 144 149
350 346 343 340 336 333 331 328 325 322 319 315 313 311 309 314 291 244 225 202 194 194 165 167 182 189 179 197 189 166 179 224 191 211 118 197 267 132 130 143 110 106 115 143 147
348 344 341 339 336 334 331 329 326 321 317 315 314 314 310 309 277 247 212 200 187 178 177 177 174 171 200 223 214 181 216 217 233 244 252 230 155 118 139 154 156 145 148 150 156
345 342 338 336 334 333 331 327 322 315 312 313 315 316 308 262 248 217 32 181 185 172 186 189 179 175 177 213 216 233 231 243 234 262 274 189 155 158 210 183 163 150 148 153 163
343 339 336 333 331 331 329 325 318 311 307 307 303 333 296 262 252 273 347 158 162 165 182 186 184 188 187 208 238 235 242 228 242 250 229 212 179 159 138 132 139 144 152 157 166
342 339 336 333 331 332 329 325 317 309 305 296 273 142 180 247 243 238 138 149 168 168 186 186 196 209 230 238 207 224 233 254 288 208 237 163 306 101 140 141 145 152 163 166 171
341 339 336 333 331 332 328 323 321 311 293 266 234 170 253 239 252 13 147 170 178 178 173 202 215 188 208 214 244 251 263 203 210 246 176 174 150 156 152 153 153 159 163 171 177
340 338 336 333 331 331 327 321 325 326 58 200 200 181 248 259 253 273 267 226 191 189 164 186 206 224 194 312 320 230 234 214 213 228 248 190 165 164 160 156 159 166 171 178 180
337 335 335 333 329 332 325 316 322 62 92 142 128 181 265 293 206 227 182 190 170 188 210 181 149 211 268 211 316 233 243 231 216 210 211 182 147 161 166 165 165 173 177 184 185
335 334 332 330 328 331 321 308 305 112 157 187 244 288 262 4 334 311 188 177 164 175 184 206 188 177 223 162 210 202 203 218 229 222 224 203 176 161 173 173 175 182 179 184 187
336 334 332 332 328 327 333 358 12 345 267 228 254 260 284 315 317 303 272 169 190 164 178 192 190 205 216 210 230 241 213 246 267 237 210 194 155 171 180 181 182 184 185 186 188
335 332 333 329 323 324 330 55 303 256 303 297 258 249 258 270 292 295 339 174 171 206 169 161 218 219 200 203 209 230 246 250 274 269 192 197 170 175 178 188 187 183 187 187 188
336 335 336 329 320 358 300 262 301 5 320 302 221 221 243 167 230 275 263 283 198 202 198 204 229 200 204 224 215 222 227 245 230 285 298 220 160 179 198 180 190 197 193 188 186
336 335 335 335 35 326 303 271 318 151 32 278 360 355 6 237 252 278 226 183 240 215 215 223 227 199 208 220 206 222 225 240 251 246 249 183 229 185 176 194 207 205 196 194 195
337 335 331 331 255 314 254 326 313 62 334 37 8 17 317 62 330 338 330 229 230 242 180 215 199 216 213 215 203 224 226 232 247 219 262 270 197 197 178 193 204 211 214 196 195
334 331 336 63 240 241 318 311 48 46 265 21 47 346 360 18 353 344 7 350 246 233 250 225 233 206 224 222 223 200 213 247 250 184 240 251 166 242 184 189 208 209 222 209 194
331 326 326 257 245 305 357 0 49 108 340 4 353 354 30 350 343 14 7 17 11 286 229 233 238 241 208 217 213 214 150 230 249 224 228 240 173 234 188 204 197 196 214 214 202
331 318 227 220 252 24 41 39 72 343 44 321 354 354 22 3 5 356 12 16 25 14 315 214 233 219 212 210 205 212 188 161 215 201 232 194 210 240 232 191 209 208 201 198 199
328 329 317 277 257 95 62 26 175 355 337 341 359 18 356 11 323 2 7 101 41 32 8 330 234 228 223 214 189 200 212 180 131 230 143 238 257 256 236 243 175 196 198 209 199
324 329 288 304 312 82 77 232 267 73 2 13 33 14 339 357 25 9 350 36 22 17 12 313 289 235 234 224 223 201 153 186 179 213 249 264 232 215 210 245 214 176 189 196 201
8 0 270 343 47 52 107 264 343 20 47 63 342 290 309 359 326 17 345 337 10 351 358 326 286 303 335 217 213 188 204 191 150 151 191 246 261 220 219 231 242 198 186 189 192
353 347 311 351 48 22 38 329 314 357 61 22 254 301 6 337 346 352 342 339 22 18 345 329 292 289 245 254 326 224 195 186 202 216 191 168 259 182 200 229 227 238 181 187 188
319 270 317 44 56 336 317 324 323 344 50 10 286 54 203 328 335 42 6 348 9 30 18 349 354 313 313 21 286 203 221 188 161 129 202 214 250 258 297 301 230 228 184 177 189
349 345 328 22 39 358 350 290 332 328 287 231 238 347 333 15 182 291 295 27 324 329 344 354 260 251 282 305 319 285 227 222 178 190 199 221 254 291 286 288 284 159 162 170 174
14 288 203 324 334 326 302 275 322 350 21 330 308 283 218 281 286 271 357 311 310 325 60 338 266 278 274 275 272 257 259 218 203 201 195 215 199 254 266 282 243 155 136 161 169
236 23 357 270 289 308 297 312 350 339 336 296 348 325 305 197 216 215 233 244 245 265 339 224 275 306 292 255 226 233 233 275 205 207 164 173 214 234 277 315 78 105 119 134 172
307 11 123 257 278 312 296 336 315 313 296 306 329 309 297 266 207 211 227 250 235 193 171 183 263 320 267 324 166 60 350 322 201 184 199 180 219 168 53 21 25 2 79 73 103